Location: The Saddle
(36.8333°N, 80.3417°W)
Time: 14:11:32
(UTC-05:00)

A-11 Canister half - Pass Details

Date: 13 December 2023
Orbit: 1526 x 1682 km, 47.3° (Epoch: 28 February)

Event Time Altitude Azimuth Distance (km) Brightness Sun altitude
Rises 16:01:37 0° 220° (SW) 4,857 13.6 9.8°
Reaches altitude 10° 16:04:45 10° 217° (SW) 3,889 13.2 9.3°
Maximum altitude 16:14:36 65° 139° (SE) 1,809 9.6 7.7°
Drops below altitude 10° 16:24:36 10° 60° (ENE) 3,945 10.5 6.1°
Sets 16:27:47 0° 58° (ENE) 4,931 10.9 5.6°
